Weather Roundup
Issued by NWS

Home | Current Version | Previous Version | Text Only | Print | Product List | Glossary On
Versions: 1 2 3 4 5 6 7 8 9 10 11 12 13 14 15 16 17 18 19 20 21 22 23 24 25 26 27 28 29 30 31 32 33 34 35 36 37 38 39 40 41 42 43 44 45 46 47 48 49 50
000
NZUS93 KARX 250610
HRRWXR

CURRENT HOURLY OBSERVATIONS ACROSS
MUCH OF THE UPPER MISSISSIPPI VALLEY
NATIONAL WEATHER SERVICE LA CROSSE WI
1200 AM CST SUN FEB 25 2018


...SOUTHEAST MINNESOTA...


CITY           SKY/WX    TMP DP  RH WIND       PRES   REMARKS
ROCHESTER      CLOUDY    21  19  92 W28G37    29.50R FOG     WCI   3
ROCHESTER/MAYO CLOUDY    23  22  97 W20G31    29.50R WCI   8
WINONA         CLOUDY    30  27  86 W9        29.49R WCI  22
AUSTIN         CLOUDY    21  18  86 W15G24    29.56R WCI   8
ALBERT LEA     CLOUDY    19  18  93 W10G18    29.56R WCI   8
DODGE CENTER   CLOUDY    21  18  86 W20       29.51R FOG     WCI   6
PRESTON        CLOUDY    22  19  89 W21G28    29.52R FOG     WCI   7
OWATONNA       CLOUDY    21  19  93 W21G29    29.53R FOG     WCI   6
FARIBAULT      FAIR      21  18  86 W13G20    29.53R FOG     WCI   9
$$

...ELSEWHERE IN MINNESOTA...


CITY           SKY/WX    TMP DP  RH WIND       PRES   REMARKS
MINNEAPOLIS    CLOUDY    23  21  92 W25G31    29.47R FOG     WCI   7
INTNL FALLS    SNOW      22  21  96 NE8       29.48F VSB 1/2 WCI  12
DULUTH         LGT SNOW  27  25  92 E16       29.37F VSB 3/4 WCI  15
RED WING       MIX PCPN  28  25  86 W18G28    29.47R WCI  16
REDWOOD FALLS  CLOUDY    19  16  88 W18G33    29.56R WCI   4
MANKATO        FLURRIES  21  18  88 W16       29.55R WCI   7
WORTHINGTON    FLURRIES  14  11  87 W20       29.63R WCI  -3
FAIRMONT       LGT SNOW  18  14  84 W26G35    29.62R FOG     WCI  -1
$$

...SOUTHWEST WISCONSIN...


CITY           SKY/WX    TMP DP  RH WIND       PRES   REMARKS
LA CROSSE      CLOUDY    35  30  82 W10       29.48R WCI  27
PRAIRIE DU CHI CLOUDY    31  28  90 W20G28    29.56R WCI  18
BOSCOBEL       CLOUDY    34  31  88 SW14G21   29.53R WCI  25
LONE ROCK      CLOUDY    35  33  92 W17G29    29.50R WCI  25
PLATTEVILLE    CLOUDY    33  33 100 W23G36    29.54R WCI  20
FORT MC COY    CLOUDY    32  32 100 SW8       29.46R WCI  25
CAMP DOUGLAS   CLOUDY    33  33 100 SW10      29.43R WCI  25
MAUSTON-NEW LI CLOUDY    33  33  99 SW7       29.43S FOG     WCI  27
VIROQUA        CLOUDY    32  32 100 W12G22    29.47R WCI  23
WIS DELLS      LGT RAIN  35  35  97 SW13      29.44S WCI  27
$$

...ELSEWHERE IN WISCONSIN...


CITY           SKY/WX    TMP DP  RH WIND       PRES   REMARKS
MILWAUKEE      HVY RAIN  38  37  97 SE15      29.41F FOG     WCI  29
MADISON        LGT RAIN  38  37  97 VRB6      29.45F WCI  33
GREEN BAY      HVY RAIN  35  32  88 S12       29.43F FOG     WCI  27
EAU CLAIRE     LGT SNOW  31  30  96 SW9       29.40F FOG     WCI  23
BLACK RVR FLS  LGT SNOW  33  33 100 SW3       29.43S
MEDFORD        MIX PCPN  30  28  95 SE5       29.37F WCI  25
WAUSAU         SNOW      32  31  96 SE7       29.37F VSB 1/2 WCI  26
WIS RAPIDS     LGT SNOW  32  30  92 MISG      29.42F FOG
MARSHFIELD     LGT SNOW  31  31 100 SE6       29.38F FOG     WCI  25
RICE LAKE      LGT SNOW  30  30  99 SE3       29.39F
$$

...NORTHEAST IOWA...


CITY           SKY/WX    TMP DP  RH WIND       PRES   REMARKS
WATERLOO       MOCLDY    27  23  85 W16G28    29.64R WCI  15
DUBUQUE        CLOUDY    32  50 100 W30G40    29.56R WCI  18
DECORAH        CLOUDY    27  25  93 W16G25    29.54R WCI  14
MASON CITY     CLOUDY    22  20  92 W30G41    29.62R FOG     WCI   4
CHARLES CITY   MOCLDY    23  25 100 W23G37    29.61R WCI   7
OELWEIN        CLOUDY    27  27 100 W30G39    29.61R WCI  10
$$

...ELSEWHERE IN IOWA...


CITY           SKY/WX    TMP DP  RH WIND       PRES   REMARKS
DES MOINES     MOCLDY    31  27  85 W18       29.73R WCI  19
IOWA CITY      CLOUDY    34  27  75 W28G37    29.70R WCI  21
FORT DODGE     MIX PCPN  25  21  85 W16G26    29.69R WCI  12
MARSHALLTOWN   CLOUDY    29  26  89 W21       29.67R WCI  16
CEDAR RAPIDS   CLOUDY    31  28  89 W28G40    29.66R WCI  17
$$

...NORTHERN ILLINOIS...


CITY           SKY/WX    TMP DP  RH WIND       PRES   REMARKS
CHICAGO-OHARE  LGT RAIN  50  47  89 SW15G21   29.46R FOG
CHICAGO-MIDWAY RAIN      50  49  96 S20G29    29.44F FOG
MOLINE         CLOUDY    35  31  85 W22G31    29.66R WCI  23
ROCKFORD       CLOUDY    41  38  89 W20G29    29.52R
PEORIA         CLOUDY    40  35  83 W29G44    29.69R WCI  29
$$

NOTE: "FAIR" INDICATES FEW OR NO CLOUDS BELOW 12,000 FEET WITH NO
SIGNIFICANT WEATHER AND/OR OBSTRUCTIONS TO VISIBILITY. WIND
SPEEDS ARE IN MILES-PER-HOUR.




USA.gov is the U.S. government's official web portal to all federal, state and local government web resources and services.